Dillon, MT

8:36 PM MDT on July 29, 2016 (GMT -0600)
Dillon

Weather History for KDLN - January, 2012

Change the Weather History Date:

Wednesday, January 18, 2012

  Actual Average Record
Temperature  
Mean Temperature 32 °F 23 °F  
Max Temperature 40 °F 33 °F 52 °F (2015)
Min Temperature 23 °F 14 °F -29 °F (1943)
Degree Days  
Heating Degree Days 33    
Month to date heating degree days 688  
Since 1 July heating degree days 3808  
Cooling Degree Days 0    
Month to date cooling degree days 0  
Year to date cooling degree days 0  
Moisture  
Dew Point 16 °F    
Average Humidity 52    
Maximum Humidity 64    
Minimum Humidity 39    
Precipitation  
Precipitation 0.00 in 0.00 in 0.13 in (1998)
Month to date precipitation T 0.16  
Year to date precipitation T 0.16  
Snow  
Snow 0.00 in - - ()
Snow Depth T in    
Sea Level Pressure  
Sea Level Pressure 29.71 in    
Wind  
Wind Speed 20 mph (SW)    
Max Wind Speed 38 mph    
Max Gust Speed 46 mph    
Visibility 10 miles    
Events      
T = Trace of Precipitation, MM = Missing Value Source: NWS Daily Summary

Daily Weather History Graph

Daily Weather History Graph

Search for Another Location

Airport or City:

Trip Planner

Search our weather history database for the weather conditions in past years. The results will help you decide how hot, cold, wet, or windy it might be!

Date:

Astronomy

Jan. 18, 2012 Rise Set
Actual Time 8:04 AM MST 5:17 PM MST
Civil Twilight 7:31 AM MST 5:50 PM MST
Nautical Twilight 6:55 AM MST 6:26 PM MST
Astronomical Twilight 6:19 AM MST 7:01 PM MST
Moon 3:39 AM MST (1/18) 12:57 PM MST (1/18)
Length of Visible Light 10h 18m
Length of Day
9h 13m
Waning Crescent, 24% of the Moon is Illuminated
Jan 18
Waning Crescent
Jan 23
New
Jan 30
First Quarter
Feb 7
Full
Feb 14
Last Quarter

Hourly Weather History & Observations

Time (MST) Temp. Windchill Dew Point Humidity Pressure Visibility Wind Dir Wind Speed Gust Speed Precip Events Conditions
12:53 AM 28.0 °F 13.0 °F 6.1 °F 39% 29.75 in 10.0 mi SW 26.5 mph 38.0 mph N/A   Overcast
1:53 AM 28.0 °F 12.0 °F 8.1 °F 43% 29.75 in 10.0 mi SW 31.1 mph 39.1 mph N/A   Overcast
2:53 AM 28.0 °F 12.3 °F 9.0 °F 45% 29.75 in 10.0 mi SW 29.9 mph 39.1 mph N/A   Overcast
3:53 AM 27.0 °F 12.5 °F 10.0 °F 49% 29.77 in 10.0 mi SW 23.0 mph 39.1 mph N/A   Overcast
4:53 AM 28.0 °F 15.3 °F 10.0 °F 47% 29.78 in 10.0 mi WSW 18.4 mph 29.9 mph N/A   Overcast
5:53 AM 27.0 °F 13.9 °F 10.9 °F 51% 29.82 in 10.0 mi SW 18.4 mph 25.3 mph N/A   Overcast
6:53 AM 24.1 °F 13.1 °F 10.9 °F 57% 29.83 in 10.0 mi SW 11.5 mph - N/A   Overcast
7:53 AM 24.1 °F 13.1 °F 10.9 °F 57% 29.83 in 10.0 mi SSW 11.5 mph - N/A   Scattered Clouds
8:53 AM 25.0 °F 13.1 °F 10.9 °F 55% 29.81 in 10.0 mi SW 13.8 mph - N/A   Clear
9:53 AM 28.9 °F 20.4 °F 12.9 °F 51% 29.78 in 10.0 mi SW 9.2 mph - N/A   Clear
10:53 AM 32.0 °F 23.0 °F 12.9 °F 45% 29.74 in 10.0 mi SW 11.5 mph - N/A   Overcast
11:53 AM 33.1 °F 23.9 °F 16.0 °F 50% 29.71 in 9.0 mi WSW 12.7 mph - N/A   Overcast
12:53 PM 33.1 °F 21.9 °F 19.0 °F 56% 29.67 in 10.0 mi WSW 18.4 mph 25.3 mph N/A   Overcast
1:53 PM 34.0 °F 22.7 °F 19.9 °F 56% 29.63 in 10.0 mi SW 19.6 mph 26.5 mph N/A   Mostly Cloudy
2:53 PM 34.0 °F 26.0 °F 21.0 °F 59% 29.62 in 10.0 mi SW 10.4 mph 17.3 mph N/A   Overcast
3:53 PM 34.0 °F 25.5 °F 21.0 °F 59% 29.62 in 10.0 mi SW 11.5 mph 23.0 mph N/A   Mostly Cloudy
4:53 PM 36.0 °F 25.0 °F 19.9 °F 52% 29.61 in 10.0 mi WSW 20.7 mph 32.2 mph N/A   Overcast
5:53 PM 37.0 °F 25.6 °F 19.9 °F 50% 29.62 in 10.0 mi WSW 24.2 mph 32.2 mph N/A   Clear
6:53 PM 37.9 °F 26.3 °F 21.0 °F 51% 29.65 in 10.0 mi WSW 26.5 mph 35.7 mph N/A   Clear
7:53 PM 37.9 °F 26.6 °F 21.0 °F 51% 29.65 in 10.0 mi WSW 25.3 mph 36.8 mph N/A   Clear
8:53 PM 39.0 °F 28.3 °F 21.0 °F 49% 29.64 in 10.0 mi WSW 24.2 mph 32.2 mph N/A   Clear
9:53 PM 37.9 °F 25.9 °F 24.1 °F 57% 29.65 in 10.0 mi SW 28.8 mph 42.6 mph N/A   Overcast
10:53 PM 37.0 °F 26.4 °F 26.1 °F 65% 29.65 in 10.0 mi SW 20.7 mph 29.9 mph N/A   Overcast
11:53 PM 39.0 °F 28.8 °F 24.1 °F 55% 29.64 in 10.0 mi WSW 21.9 mph 29.9 mph N/A   Overcast